Newport Airport, OR

3:35 AM PDT on May 26, 2017 (GMT -0700)
Newport Municipal

Weather History for KONP - March, 2012

Change the Weather History Date:

Tuesday, March 20, 2012

  Actual Average Record
Temperature  
Mean Temperature 44 °F -  
Max Temperature 46 °F 51 °F 69 °F (2004)
Min Temperature 41 °F 41 °F 32 °F (2006)
Degree Days  
Heating Degree Days 22    
Moisture  
Dew Point 42 °F    
Average Humidity 90    
Maximum Humidity 100    
Minimum Humidity 76    
Precipitation  
Precipitation 0.54 in - - ()
Sea Level Pressure  
Sea Level Pressure 29.93 in    
Wind  
Wind Speed 22 mph (SW)    
Max Wind Speed 37 mph    
Max Gust Speed 53 mph    
Visibility 4 miles    
Events Rain    
Averages and records for this station are not official NWS values.
T = Trace of Precipitation, MM = Missing Value Source: NWS Daily Summary

Daily Weather History Graph

Daily Weather History Graph

Search for Another Location

Airport or City:

Trip Planner

Search our weather history database for the weather conditions in past years. The results will help you decide how hot, cold, wet, or windy it might be!

Date:

Astronomy

Mar. 20, 2012 Rise Set
Actual Time 7:18 AM PDT 7:29 PM PDT
Civil Twilight 6:49 AM PDT 7:58 PM PDT
Nautical Twilight 6:15 AM PDT 8:32 PM PDT
Astronomical Twilight 5:40 AM PDT 9:07 PM PDT
Moon 6:06 AM PDT (3/20) 6:01 PM PDT (3/20)
Length of Visible Light 13h 09m
Length of Day
12h 11m
Waning Crescent, 3% of the Moon is Illuminated
Mar 20
Waning Crescent
Mar 22
New
Mar 30
First Quarter
Apr 6
Full
Apr 13
Last Quarter

Hourly Weather History & Observations

Time (PDT) Temp. Windchill Dew Point Humidity Pressure Visibility Wind Dir Wind Speed Gust Speed Precip Events Conditions
1:55 AM 44.6 °F 34.2 °F 44.6 °F 100% 29.79 in 2.0 mi South 33.4 mph 49.5 mph 0.03 in Rain Rain
2:15 AM 44.6 °F 34.4 °F 44.6 °F 100% 29.80 in 1.8 mi SSW 32.2 mph 46.0 mph 0.01 in Rain Rain
2:35 AM 44.6 °F 34.1 °F 44.6 °F 100% 29.81 in 2.0 mi SSW 34.5 mph 44.9 mph 0.02 in Rain Rain
2:55 AM 44.6 °F 33.8 °F 44.6 °F 100% 29.79 in 2.0 mi South 36.8 mph 42.6 mph 0.03 in Rain Rain
3:15 AM 44.6 °F 34.2 °F 44.6 °F 100% 29.78 in 2.0 mi SSW 33.4 mph 52.9 mph N/A Rain Light Rain
3:35 AM 44.6 °F 34.1 °F 44.6 °F 100% 29.77 in 2.5 mi SSW 34.5 mph 46.0 mph N/A Rain Light Rain
3:55 AM 44.6 °F 34.9 °F 44.6 °F 100% 29.79 in 2.0 mi SSW 28.8 mph 41.4 mph 0.01 in Rain Light Rain
4:15 AM 44.6 °F 34.2 °F 44.6 °F 100% 29.80 in 2.0 mi SSW 33.4 mph 46.0 mph 0.01 in Rain Rain
4:35 AM 46.4 °F 37.5 °F 44.6 °F 93% 29.80 in 2.5 mi SSW 27.6 mph 43.7 mph 0.02 in Rain Light Rain
4:55 AM 46.4 °F 37.0 °F 44.6 °F 93% 29.81 in 2.5 mi SSW 31.1 mph 43.7 mph 0.02 in Rain Light Rain
5:15 AM 46.4 °F 38.1 °F 44.6 °F 93% 29.81 in 2.0 mi SSW 24.2 mph 34.5 mph 0.01 in Rain Light Rain
5:35 AM 46.4 °F 37.5 °F 44.6 °F 93% 29.82 in 2.0 mi SSW 27.6 mph 34.5 mph 0.02 in Rain Rain
5:55 AM 46.4 °F 38.1 °F 44.6 °F 93% 29.83 in 2.5 mi SSW 24.2 mph 36.8 mph 0.05 in Rain Rain
6:15 AM 46.4 °F 39.2 °F 44.6 °F 93% 29.83 in 3.0 mi SW 18.4 mph 29.9 mph 0.02 in Rain Rain
6:35 AM 46.4 °F 39.5 °F 46.4 °F 100% 29.85 in 5.0 mi SSW 17.3 mph 23.0 mph 0.02 in   Overcast
6:55 AM 46.4 °F 40.1 °F 44.6 °F 93% 29.84 in 5.0 mi SW 15.0 mph - 0.02 in   Drizzle
7:15 AM 46.4 °F 40.4 °F 44.6 °F 93% 29.82 in 4.0 mi SW 13.8 mph 18.4 mph N/A   Drizzle
7:35 AM 46.4 °F 40.1 °F 44.6 °F 93% 29.84 in 5.0 mi SW 15.0 mph - N/A   Overcast
7:55 AM 46.4 °F 41.1 °F 44.6 °F 93% 29.84 in 4.0 mi WSW 11.5 mph 16.1 mph N/A   Overcast
8:15 AM 46.4 °F 41.1 °F 44.6 °F 93% 29.84 in 3.0 mi SW 11.5 mph - N/A Rain Rain
8:35 AM 46.4 °F 41.1 °F 44.6 °F 93% 29.84 in 3.0 mi SW 11.5 mph - N/A   Light Drizzle
8:55 AM 46.4 °F 40.4 °F 44.6 °F 93% 29.85 in 4.0 mi SW 13.8 mph - N/A   Overcast
9:15 AM 46.4 °F 40.7 °F 44.6 °F 93% 29.86 in 4.0 mi SW 12.7 mph - N/A   Overcast
9:35 AM 46.4 °F 39.8 °F 44.6 °F 93% 29.88 in 4.0 mi SW 16.1 mph 21.9 mph N/A   Overcast
9:55 AM 44.6 °F 39.7 °F 41.0 °F 87% 29.92 in 5.0 mi WSW 9.2 mph 20.7 mph N/A   Overcast
10:15 AM 44.6 °F 37.2 °F 42.8 °F 93% 29.93 in 2.5 mi WSW 17.3 mph 25.3 mph 0.02 in Rain Light Rain
10:35 AM 44.6 °F 38.1 °F 42.8 °F 93% 29.95 in 5.0 mi SW 13.8 mph 23.0 mph 0.03 in   Overcast
10:55 AM 46.4 °F 40.4 °F 42.8 °F 87% 29.95 in 5.0 mi WSW 13.8 mph 18.4 mph 0.03 in   Overcast
11:15 AM 44.6 °F 40.2 °F 41.0 °F 87% 29.95 in 5.0 mi WSW 8.1 mph - N/A   Haze
11:55 AM 46.4 °F 40.1 °F 42.8 °F 87% 29.96 in 5.0 mi SW 15.0 mph 20.7 mph N/A   Overcast
12:15 PM 46.4 °F 41.1 °F 42.8 °F 87% 29.96 in 5.0 mi SW 11.5 mph 17.3 mph N/A   Overcast
12:35 PM 46.4 °F 40.7 °F 42.8 °F 87% 29.98 in 5.0 mi WSW 12.7 mph 19.6 mph N/A   Haze
12:55 PM 46.4 °F 41.1 °F 41.0 °F 81% 29.99 in 7.0 mi WSW 11.5 mph - N/A   Overcast
1:15 PM 46.4 °F 41.9 °F 41.0 °F 81% 29.97 in 7.0 mi SW 9.2 mph - N/A   Overcast
1:35 PM 46.4 °F 41.5 °F 41.0 °F 81% 29.98 in 7.0 mi SW 10.4 mph 18.4 mph N/A   Overcast
1:55 PM 46.4 °F 41.9 °F 41.0 °F 81% 29.98 in 5.0 mi SW 9.2 mph - N/A   Haze
2:35 PM 44.6 °F 37.8 °F 41.0 °F 87% 29.99 in 5.0 mi SW 15.0 mph 20.7 mph N/A Rain Light Rain
3:15 PM 44.6 °F 37.4 °F 41.0 °F 87% 30.01 in 2.5 mi WSW 16.1 mph 21.9 mph 0.01 in Rain Rain
3:35 PM 42.8 °F 36.6 °F 41.0 °F 93% 30.02 in 4.0 mi WSW 11.5 mph 20.7 mph 0.03 in Rain Light Rain
4:15 PM 42.8 °F 37.0 °F 41.0 °F 93% 30.02 in 5.0 mi SW 10.4 mph - 0.01 in Rain Light Rain
4:35 PM 42.8 °F 37.0 °F 41.0 °F 93% 30.03 in 4.0 mi SW 10.4 mph - 0.03 in Rain Light Rain
4:55 PM 44.6 °F 38.8 °F 39.2 °F 81% 30.02 in 5.0 mi SW 11.5 mph 18.4 mph 0.03 in   Drizzle
5:15 PM 44.6 °F 36.6 °F 37.4 °F 76% 30.02 in 5.0 mi SW 19.6 mph 25.3 mph N/A   Drizzle
5:35 PM 42.8 °F 35.8 °F 37.4 °F 81% 30.03 in 5.0 mi SSW 13.8 mph 24.2 mph N/A   Drizzle
5:55 PM 42.8 °F 36.2 °F 37.4 °F 81% 30.03 in 4.0 mi SW 12.7 mph 16.1 mph 0.01 in Rain Light Rain
6:15 PM 42.8 °F 36.6 °F 37.4 °F 81% 30.03 in 4.0 mi SSW 11.5 mph 16.1 mph N/A   Drizzle
6:35 PM 42.8 °F 36.6 °F 39.2 °F 87% 30.03 in 3.0 mi SSW 11.5 mph 18.4 mph 0.01 in Rain Heavy Rain
6:55 PM 42.8 °F 36.6 °F 41.0 °F 93% 30.04 in 2.0 mi WSW 11.5 mph 17.3 mph 0.03 in Rain Rain
7:15 PM 42.8 °F 36.6 °F 39.2 °F 87% 30.05 in 2.5 mi WSW 11.5 mph 17.3 mph 0.03 in Rain Rain
7:35 PM 42.8 °F 36.6 °F 39.2 °F 87% 30.05 in 4.0 mi WSW 11.5 mph - 0.06 in Rain Rain
7:55 PM 41.0 °F 34.7 °F 37.4 °F 87% 30.05 in 4.0 mi West 10.4 mph 18.4 mph 0.09 in Rain Rain
8:35 PM 41.0 °F 35.8 °F 37.4 °F 87% 30.06 in 5.0 mi West 8.1 mph - 0.05 in Rain Light Rain
8:55 PM 41.0 °F 35.2 °F 37.4 °F 87% 30.07 in 5.0 mi West 9.2 mph - 0.07 in Rain Rain
9:15 PM 41.0 °F 35.2 °F 37.4 °F 87% 30.07 in 4.0 mi West 9.2 mph - 0.01 in Rain Heavy Rain
9:35 PM 41.0 °F 35.2 °F 37.4 °F 87% 30.06 in 4.0 mi WNW 9.2 mph - 0.03 in Rain Heavy Rain
9:55 PM 41.0 °F 35.8 °F 37.4 °F 87% 30.07 in 5.0 mi NW 8.1 mph - 0.04 in Rain Rain
10:35 PM 41.0 °F 34.3 °F 37.4 °F 87% 30.08 in 4.0 mi NW 11.5 mph 19.6 mph 0.03 in Rain Rain
10:55 PM 41.0 °F 36.4 °F 35.6 °F 81% 30.07 in 5.0 mi West 6.9 mph - 0.05 in Rain Rain
11:15 PM 39.2 °F 33.6 °F 35.6 °F 87% 30.08 in 5.0 mi WNW 8.1 mph - 0.02 in Rain Rain
11:35 PM 39.2 °F 34.2 °F 35.6 °F 87% 30.08 in 5.0 mi NW 6.9 mph - 0.05 in Rain Rain
11:55 PM 37.4 °F 33.8 °F 35.6 °F 93% 30.09 in 7.0 mi NNW 4.6 mph - 0.07 in Rain Light Rain